Weather in Belyay

Russia / Tomsk District     57°03′04″N   86°16′07″E
temp.,
°C
wind,
m/s
gust,
m/s
humid.,
%
clouds,
%
prec.,
mm/h
press.,
hPa
HPBL,
m
16 may, sun
sun1601:00+10nne2293100 3.9 101750
04:00+8ne349296 0.0 101589
07:00+9e358365 0.0 1016248
10:00+12e4568100 0.0 1014624
13:00+9e6894100 9.9 1012312
16:00+7ne5692100 7.6 1013458
19:00+7ne4691100 7.8 1014388
22:00+6ne259094 0.0 1015297
17 may, mon
mon1701:00+5ne2289100 0.0 101634
04:00+6nne2284100 0.0 101677
07:00+6ene2376100 0.0 1017178
10:00+7se1167100 0.0 1018291
13:00+10s1158100 0.0 1017568
16:00+13sw1254100 0.0 10161006
19:00+12ese1171100 0.5 1015124
22:00+10e3683100 0.1 1014157
18 may, tue
tue1801:00+9se5985100 0.9 1012271
04:00+10se2590100 0.4 1009184
07:00+11sse2395100 1.6 1006103
10:00+13se1195100 1.1 1004196
13:00+10ene3496100 1.3 1005188
16:00+10ne3493100 0.4 1004352
19:00+9nne3794100 2.9 1005474
22:00+8nne3693100 0.0 1007285
19 may, wed
wed1901:00+7nne3693100 0.0 1007224
04:00+7ne3792100 0.0 1007237
07:00+6ne41072100 0.0 1007368
10:00+7ne61263100 0.0 1007608
13:00+7ne61058100 0.3 10071118
16:00+9nne61242100 0.0 10061932
19:00+9nne71342100 0.0 10072238
22:00+5nnw613483 0.0 1009388
20 may, thu
thu2001:00+2nnw612551 0.0 1012427
04:000nw511645 0.0 1013360
07:00+1nw611580 0.0 1015784
10:00+4nw794799 0.0 10151881
13:00+6nnw81046100 0.0 10152126
16:00+5nnw61374100 0.6 10161441
19:00+5nnw71474100 1.1 10171269
22:00+4nnw227415 0.0 101925